owner,sensor,date,latitude,longitude,vertical_datum,wind_speed,wind_to_direction,wind_speed_of_gust,qcFlag 
COMPS,ioos:station:USF.COMPS:NFB:1,2014-12-01T00:00:00Z,25.0840,-81.0960,6.0,5.98,68.08,7.44,'1111122,1111122,1111122' 
COMPS,ioos:station:USF.COMPS:NFB:1,2014-12-01T00:06:00Z,25.0840,-81.0960,6.0,5.75,67.68,6.76,'1111122,1111122,1111122' 
COMPS,ioos:station:USF.COMPS:NFB:1,2014-12-01T00:12:00Z,25.0840,-81.0960,6.0,5.44,68.16,6.27,'1111122,1111122,1111122' 
COMPS,ioos:station:USF.COMPS:NFB:1,2014-12-01T00:18:00Z,25.0840,-81.0960,6.0,5.25,70.15,6.46,'1111122,1111122,1111122' 
COMPS,ioos:station:USF.COMPS:NFB:1,2014-12-01T00:24:00Z,25.0840,-81.0960,6.0,5.33,70.76,7.05,'1111122,1111122,1111122' 
COMPS,ioos:station:USF.COMPS:NFB:1,2014-12-01T00:30:00Z,25.0840,-81.0960,6.0,5.29,69.3,6.66,'1111122,1111122,1111122' 
COMPS,ioos:station:USF.COMPS:NFB:1,2014-12-01T00:36:00Z,25.0840,-81.0960,6.0,5.2,70.1,5.97,'1111122,1111122,1111122' 
COMPS,ioos:station:USF.COMPS:NFB:1,2014-12-01T00:42:00Z,25.0840,-81.0960,6.0,5.06,68.55,6.07,'1111122,1111122,1111122' 
COMPS,ioos:station:USF.COMPS:NFB:1,2014-12-01T00:48:00Z,25.0840,-81.0960,6.0,5.03,68.96,5.78,'1111122,1111122,1111122' 
COMPS,ioos:station:USF.COMPS:NFB:1,2014-12-01T00:54:00Z,25.0840,-81.0960,6.0,5.08,64.37,5.78,'1111122,1111122,1111122' 
COMPS,ioos:station:USF.COMPS:NFB:1,2014-12-01T01:00:00Z,25.0840,-81.0960,6.0,5.03,63.87,5.58,'1111122,1111122,1111122' 
COMPS,ioos:station:USF.COMPS:NFB:1,2014-12-01T01:06:00Z,25.0840,-81.0960,6.0,4.78,62.82,5.48,'1111122,1111122,1111122' 
COMPS,ioos:station:USF.COMPS:NFB:1,2014-12-01T01:12:00Z,25.0840,-81.0960,6.0,5.0,64.36,5.78,'1111122,1111122,1111122' 
COMPS,ioos:station:USF.COMPS:NFB:1,2014-12-01T01:18:00Z,25.0840,-81.0960,6.0,5.04,63.12,5.68,'1111122,1111122,1111122' 
COMPS,ioos:station:USF.COMPS:NFB:1,2014-12-01T01:24:00Z,25.0840,-81.0960,6.0,5.5,64.33,6.85,'1111122,1111122,1111122' 
COMPS,ioos:station:USF.COMPS:NFB:1,2014-12-01T01:30:00Z,25.0840,-81.0960,6.0,5.83,65.71,6.56,'1111122,1111122,1111122' 
COMPS,ioos:station:USF.COMPS:NFB:1,2014-12-01T01:36:00Z,25.0840,-81.0960,6.0,5.53,64.78,6.46,'1111122,1111122,1111122' 
COMPS,ioos:station:USF.COMPS:NFB:1,2014-12-01T01:42:00Z,25.0840,-81.0960,6.0,5.3,66.68,5.78,'1111122,1111122,1111122' 
COMPS,ioos:station:USF.COMPS:NFB:1,2014-12-01T01:48:00Z,25.0840,-81.0960,6.0,5.4,67.99,6.17,'1111122,1111122,1111122' 
COMPS,ioos:station:USF.COMPS:NFB:1,2014-12-01T01:54:00Z,25.0840,-81.0960,6.0,5.78,69.33,6.95,'1111122,1111122,1111122' 
COMPS,ioos:station:USF.COMPS:NFB:1,2014-12-01T02:00:00Z,25.0840,-81.0960,6.0,5.73,69.29,6.56,'1111122,1111122,1111122' 
COMPS,ioos:station:USF.COMPS:NFB:1,2014-12-01T02:06:00Z,25.0840,-81.0960,6.0,5.46,69.91,6.37,'1111122,1111122,1111122' 
COMPS,ioos:station:USF.COMPS:NFB:1,2014-12-01T02:12:00Z,25.0840,-81.0960,6.0,5.42,67.51,6.07,'1111122,1111122,1111122' 
COMPS,ioos:station:USF.COMPS:NFB:1,2014-12-01T02:18:00Z,25.0840,-81.0960,6.0,5.39,66.83,6.17,'1111122,1111122,1111122' 
COMPS,ioos:station:USF.COMPS:NFB:1,2014-12-01T02:24:00Z,25.0840,-81.0960,6.0,5.11,63.22,5.97,'1111122,1111122,1111122' 
COMPS,ioos:station:USF.COMPS:NFB:1,2014-12-01T02:30:00Z,25.0840,-81.0960,6.0,5.21,60.56,5.97,'1111122,1111122,1111122' 
COMPS,ioos:station:USF.COMPS:NFB:1,2014-12-01T02:36:00Z,25.0840,-81.0960,6.0,5.15,61.58,5.97,'1111122,1111122,1111122' 
COMPS,ioos:station:USF.COMPS:NFB:1,2014-12-01T02:42:00Z,25.0840,-81.0960,6.0,5.09,62.67,5.87,'1111122,1111122,1111122' 
COMPS,ioos:station:USF.COMPS:NFB:1,2014-12-01T02:48:00Z,25.0840,-81.0960,6.0,5.31,61.09,6.17,'1111122,1111122,1111122' 
COMPS,ioos:station:USF.COMPS:NFB:1,2014-12-01T02:54:00Z,25.0840,-81.0960,6.0,5.39,58.73,6.17,'1111122,1111122,1111122' 
COMPS,ioos:station:USF.COMPS:NFB:1,2014-12-01T03:00:00Z,25.0840,-81.0960,6.0,5.28,59.9,5.78,'1111122,1111122,1111122' 
COMPS,ioos:station:USF.COMPS:NFB:1,2014-12-01T03:06:00Z,25.0840,-81.0960,6.0,5.16,59.41,6.27,'1111122,1111122,1111122' 
COMPS,ioos:station:USF.COMPS:NFB:1,2014-12-01T03:12:00Z,25.0840,-81.0960,6.0,4.89,61.33,5.29,'1111122,1111122,1111122' 
COMPS,ioos:station:USF.COMPS:NFB:1,2014-12-01T03:18:00Z,25.0840,-81.0960,6.0,4.63,67.68,5.29,'1111122,1111122,1111122' 
COMPS,ioos:station:USF.COMPS:NFB:1,2014-12-01T03:24:00Z,25.0840,-81.0960,6.0,4.26,69.03,4.9,'1111122,1111122,1111122' 
COMPS,ioos:station:USF.COMPS:NFB:1,2014-12-01T03:30:00Z,25.0840,-81.0960,6.0,3.7,77.71,4.11,'1111122,1111122,1111122' 
COMPS,ioos:station:USF.COMPS:NFB:1,2014-12-01T03:36:00Z,25.0840,-81.0960,6.0,3.91,81.39,4.31,'1111122,1111122,1111122' 
COMPS,ioos:station:USF.COMPS:NFB:1,2014-12-01T03:42:00Z,25.0840,-81.0960,6.0,3.89,82.66,4.8,'1111122,1111122,1111122' 
COMPS,ioos:station:USF.COMPS:NFB:1,2014-12-01T03:48:00Z,25.0840,-81.0960,6.0,4.2,87.55,4.9,'1111122,1111122,1111122' 
COMPS,ioos:station:USF.COMPS:NFB:1,2014-12-01T03:54:00Z,25.0840,-81.0960,6.0,4.32,85.85,4.9,'1111122,1111122,1111122' 
COMPS,ioos:station:USF.COMPS:NFB:1,2014-12-01T04:00:00Z,25.0840,-81.0960,6.0,3.94,77.35,4.5,'1111122,1111122,1111122' 
COMPS,ioos:station:USF.COMPS:NFB:1,2014-12-01T04:06:00Z,25.0840,-81.0960,6.0,3.83,77.87,4.6,'1111122,1111122,1111122' 
COMPS,ioos:station:USF.COMPS:NFB:1,2014-12-01T04:12:00Z,25.0840,-81.0960,6.0,3.96,72.53,4.7,'1111122,1111122,1111122' 
COMPS,ioos:station:USF.COMPS:NFB:1,2014-12-01T04:18:00Z,25.0840,-81.0960,6.0,3.33,54.54,3.72,'1111122,1111122,1111122' 
COMPS,ioos:station:USF.COMPS:NFB:1,2014-12-01T04:24:00Z,25.0840,-81.0960,6.0,3.19,45.16,3.52,'1111122,1111122,1111122' 
COMPS,ioos:station:USF.COMPS:NFB:1,2014-12-01T04:30:00Z,25.0840,-81.0960,6.0,3.06,38.54,3.42,'1111122,1111122,1111122' 
COMPS,ioos:station:USF.COMPS:NFB:1,2014-12-01T04:36:00Z,25.0840,-81.0960,6.0,2.97,34.55,3.42,'1111122,1111122,1111122' 
COMPS,ioos:station:USF.COMPS:NFB:1,2014-12-01T04:42:00Z,25.0840,-81.0960,6.0,3.11,35.44,3.42,'1111122,1111122,1111122' 
COMPS,ioos:station:USF.COMPS:NFB:1,2014-12-01T04:48:00Z,25.0840,-81.0960,6.0,3.09,30.18,3.62,'1111122,1111122,1111122' 
COMPS,ioos:station:USF.COMPS:NFB:1,2014-12-01T04:54:00Z,25.0840,-81.0960,6.0,3.28,27.35,3.52,'1111122,1111122,1111122' 
COMPS,ioos:station:USF.COMPS:NFB:1,2014-12-01T05:00:00Z,25.0840,-81.0960,6.0,2.98,21.5,3.42,'1111122,1111122,1111122' 
COMPS,ioos:station:USF.COMPS:NFB:1,2014-12-01T05:06:00Z,25.0840,-81.0960,6.0,2.96,21.77,3.42,'1111122,1111122,1111122' 
COMPS,ioos:station:USF.COMPS:NFB:1,2014-12-01T05:12:00Z,25.0840,-81.0960,6.0,3.04,23.4,3.42,'1111122,1111122,1111122' 
COMPS,ioos:station:USF.COMPS:NFB:1,2014-12-01T05:18:00Z,25.0840,-81.0960,6.0,3.59,23.88,4.01,'1111122,1111122,1111122' 
COMPS,ioos:station:USF.COMPS:NFB:1,2014-12-01T05:24:00Z,25.0840,-81.0960,6.0,3.45,29.41,3.82,'1111122,1111122,1111122' 
COMPS,ioos:station:USF.COMPS:NFB:1,2014-12-01T05:30:00Z,25.0840,-81.0960,6.0,3.55,34.34,3.91,'1111122,1111122,1111122' 
COMPS,ioos:station:USF.COMPS:NFB:1,2014-12-01T05:36:00Z,25.0840,-81.0960,6.0,3.98,37.38,4.5,'1111122,1111122,1111122' 
COMPS,ioos:station:USF.COMPS:NFB:1,2014-12-01T05:42:00Z,25.0840,-81.0960,6.0,4.13,40.74,4.6,'1111122,1111122,1111122' 
COMPS,ioos:station:USF.COMPS:NFB:1,2014-12-01T05:48:00Z,25.0840,-81.0960,6.0,4.21,40.83,4.7,'1111122,1111122,1111122' 
COMPS,ioos:station:USF.COMPS:NFB:1,2014-12-01T05:54:00Z,25.0840,-81.0960,6.0,4.11,41.05,4.6,'1111122,1111122,1111122' 
COMPS,ioos:station:USF.COMPS:NFB:1,2014-12-01T06:00:00Z,25.0840,-81.0960,6.0,3.74,38.15,4.21,'1111122,1111122,1111122' 
COMPS,ioos:station:USF.COMPS:NFB:1,2014-12-01T06:06:00Z,25.0840,-81.0960,6.0,3.48,39.27,3.91,'1111122,1111122,1111122' 
COMPS,ioos:station:USF.COMPS:NFB:1,2014-12-01T06:12:00Z,25.0840,-81.0960,6.0,3.24,41.37,3.72,'1111122,1111122,1111122' 
COMPS,ioos:station:USF.COMPS:NFB:1,2014-12-01T06:18:00Z,25.0840,-81.0960,6.0,3.18,42.41,3.62,'1111122,1111122,1111122' 
COMPS,ioos:station:USF.COMPS:NFB:1,2014-12-01T06:24:00Z,25.0840,-81.0960,6.0,3.1,47.97,3.42,'1111122,1111122,1111122' 
COMPS,ioos:station:USF.COMPS:NFB:1,2014-12-01T06:30:00Z,25.0840,-81.0960,6.0,3.33,51.68,3.72,'1111122,1111122,1111122' 
COMPS,ioos:station:USF.COMPS:NFB:1,2014-12-01T06:36:00Z,25.0840,-81.0960,6.0,3.66,52.47,4.11,'1111122,1111122,1111122' 
COMPS,ioos:station:USF.COMPS:NFB:1,2014-12-01T06:42:00Z,25.0840,-81.0960,6.0,3.33,56.39,3.91,'1111122,1111122,1111122' 
COMPS,ioos:station:USF.COMPS:NFB:1,2014-12-01T06:48:00Z,25.0840,-81.0960,6.0,2.76,60.46,3.33,'1111122,1111122,1111122' 
COMPS,ioos:station:USF.COMPS:NFB:1,2014-12-01T06:54:00Z,25.0840,-81.0960,6.0,2.28,67.93,2.93,'1111122,1111122,1111122' 
COMPS,ioos:station:USF.COMPS:NFB:1,2014-12-01T07:00:00Z,25.0840,-81.0960,6.0,3.08,62.63,4.01,'1111122,1111122,1111122' 
COMPS,ioos:station:USF.COMPS:NFB:1,2014-12-01T07:06:00Z,25.0840,-81.0960,6.0,3.46,59.72,4.31,'1111122,1111122,1111122' 
COMPS,ioos:station:USF.COMPS:NFB:1,2014-12-01T07:12:00Z,25.0840,-81.0960,6.0,3.91,62.79,4.21,'1111122,1111122,1111122' 
COMPS,ioos:station:USF.COMPS:NFB:1,2014-12-01T07:18:00Z,25.0840,-81.0960,6.0,3.93,67.61,4.6,'1111122,1111122,1111122' 
COMPS,ioos:station:USF.COMPS:NFB:1,2014-12-01T07:24:00Z,25.0840,-81.0960,6.0,3.44,63.55,3.91,'1111122,1111122,1111122' 
COMPS,ioos:station:USF.COMPS:NFB:1,2014-12-01T07:30:00Z,25.0840,-81.0960,6.0,3.55,63.94,3.91,'1111122,1111122,1111122' 
COMPS,ioos:station:USF.COMPS:NFB:1,2014-12-01T07:36:00Z,25.0840,-81.0960,6.0,3.52,64.05,3.91,'1111122,1111122,1111122' 
COMPS,ioos:station:USF.COMPS:NFB:1,2014-12-01T07:42:00Z,25.0840,-81.0960,6.0,4.07,67.08,4.9,'1111122,1111122,1111122' 
COMPS,ioos:station:USF.COMPS:NFB:1,2014-12-01T07:48:00Z,25.0840,-81.0960,6.0,4.69,71.28,5.58,'1111122,1111122,1111122' 
COMPS,ioos:station:USF.COMPS:NFB:1,2014-12-01T07:54:00Z,25.0840,-81.0960,6.0,5.64,73.11,6.95,'1111122,1111122,1111122' 
COMPS,ioos:station:USF.COMPS:NFB:1,2014-12-01T08:00:00Z,25.0840,-81.0960,6.0,5.21,67.26,5.87,'1111122,1111122,1111122' 
COMPS,ioos:station:USF.COMPS:NFB:1,2014-12-01T08:06:00Z,25.0840,-81.0960,6.0,5.1,63.31,5.78,'1111122,1111122,1111122' 
COMPS,ioos:station:USF.COMPS:NFB:1,2014-12-01T08:12:00Z,25.0840,-81.0960,6.0,5.51,61.53,6.37,'1111122,1111122,1111122' 
COMPS,ioos:station:USF.COMPS:NFB:1,2014-12-01T08:18:00Z,25.0840,-81.0960,6.0,5.45,57.55,6.07,'1111122,1111122,1111122' 
COMPS,ioos:station:USF.COMPS:NFB:1,2014-12-01T08:24:00Z,25.0840,-81.0960,6.0,5.37,62.17,6.37,'1111122,1111122,1111122' 
COMPS,ioos:station:USF.COMPS:NFB:1,2014-12-01T08:30:00Z,25.0840,-81.0960,6.0,5.92,67.68,6.56,'1111122,1111122,1111122' 
COMPS,ioos:station:USF.COMPS:NFB:1,2014-12-01T08:36:00Z,25.0840,-81.0960,6.0,5.91,68.09,6.56,'1111122,1111122,1111122' 
COMPS,ioos:station:USF.COMPS:NFB:1,2014-12-01T08:42:00Z,25.0840,-81.0960,6.0,5.38,68.88,6.17,'1111122,1111122,1111122' 
COMPS,ioos:station:USF.COMPS:NFB:1,2014-12-01T08:48:00Z,25.0840,-81.0960,6.0,5.87,65.38,6.46,'1111122,1111122,1111122' 
COMPS,ioos:station:USF.COMPS:NFB:1,2014-12-01T08:54:00Z,25.0840,-81.0960,6.0,5.37,64.39,6.37,'1111122,1111122,1111122' 
COMPS,ioos:station:USF.COMPS:NFB:1,2014-12-01T09:00:00Z,25.0840,-81.0960,6.0,5.26,66.15,5.97,'1111122,1111122,1111122' 
COMPS,ioos:station:USF.COMPS:NFB:1,2014-12-01T09:06:00Z,25.0840,-81.0960,6.0,5.18,67.13,5.97,'1111122,1111122,1111122' 
COMPS,ioos:station:USF.COMPS:NFB:1,2014-12-01T09:12:00Z,25.0840,-81.0960,6.0,4.99,65.46,5.58,'1111122,1111122,1111122' 
COMPS,ioos:station:USF.COMPS:NFB:1,2014-12-01T09:18:00Z,25.0840,-81.0960,6.0,4.77,64.27,5.48,'1111122,1111122,1111122' 
COMPS,ioos:station:USF.COMPS:NFB:1,2014-12-01T09:24:00Z,25.0840,-81.0960,6.0,4.51,62.94,5.29,'1111122,1111122,1111122' 
COMPS,ioos:station:USF.COMPS:NFB:1,2014-12-01T09:30:00Z,25.0840,-81.0960,6.0,4.59,64.09,5.09,'1111122,1111122,1111122' 
COMPS,ioos:station:USF.COMPS:NFB:1,2014-12-01T09:36:00Z,25.0840,-81.0960,6.0,4.79,65.02,5.29,'1111122,1111122,1111122' 
COMPS,ioos:station:USF.COMPS:NFB:1,2014-12-01T09:42:00Z,25.0840,-81.0960,6.0,5.17,67.17,5.78,'1111122,1111122,1111122' 
COMPS,ioos:station:USF.COMPS:NFB:1,2014-12-01T09:48:00Z,25.0840,-81.0960,6.0,4.92,67.27,5.58,'1111122,1111122,1111122' 
COMPS,ioos:station:USF.COMPS:NFB:1,2014-12-01T09:54:00Z,25.0840,-81.0960,6.0,4.54,67.42,5.09,'1111122,1111122,1111122' 
COMPS,ioos:station:USF.COMPS:NFB:1,2014-12-01T10:00:00Z,25.0840,-81.0960,6.0,4.69,67.91,5.09,'1111122,1111122,1111122' 
COMPS,ioos:station:USF.COMPS:NFB:1,2014-12-01T10:06:00Z,25.0840,-81.0960,6.0,4.93,70.02,5.39,'1111122,1111122,1111122' 
COMPS,ioos:station:USF.COMPS:NFB:1,2014-12-01T10:12:00Z,25.0840,-81.0960,6.0,4.85,68.06,5.39,'1111122,1111122,1111122' 
COMPS,ioos:station:USF.COMPS:NFB:1,2014-12-01T10:18:00Z,25.0840,-81.0960,6.0,4.83,67.19,5.39,'1111122,1111122,1111122' 
COMPS,ioos:station:USF.COMPS:NFB:1,2014-12-01T10:24:00Z,25.0840,-81.0960,6.0,4.67,64.59,5.19,'1111122,1111122,1111122' 
COMPS,ioos:station:USF.COMPS:NFB:1,2014-12-01T10:30:00Z,25.0840,-81.0960,6.0,4.25,63.69,4.7,'1111122,1111122,1111122' 
COMPS,ioos:station:USF.COMPS:NFB:1,2014-12-01T10:36:00Z,25.0840,-81.0960,6.0,4.05,61.6,4.6,'1111122,1111122,1111122' 
COMPS,ioos:station:USF.COMPS:NFB:1,2014-12-01T10:42:00Z,25.0840,-81.0960,6.0,4.06,59.42,4.5,'1111122,1111122,1111122' 
COMPS,ioos:station:USF.COMPS:NFB:1,2014-12-01T10:48:00Z,25.0840,-81.0960,6.0,4.0,58.38,4.7,'1111122,1111122,1111122' 
COMPS,ioos:station:USF.COMPS:NFB:1,2014-12-01T10:54:00Z,25.0840,-81.0960,6.0,3.87,58.98,4.41,'1111122,1111122,1111122' 
COMPS,ioos:station:USF.COMPS:NFB:1,2014-12-01T11:00:00Z,25.0840,-81.0960,6.0,3.96,59.39,4.41,'1111122,1111122,1111122' 
COMPS,ioos:station:USF.COMPS:NFB:1,2014-12-01T11:06:00Z,25.0840,-81.0960,6.0,3.86,59.41,4.31,'1111122,1111122,1111122' 
COMPS,ioos:station:USF.COMPS:NFB:1,2014-12-01T11:12:00Z,25.0840,-81.0960,6.0,3.96,62.4,4.31,'1111122,1111122,1111122' 
COMPS,ioos:station:USF.COMPS:NFB:1,2014-12-01T11:18:00Z,25.0840,-81.0960,6.0,4.26,64.86,4.9,'1111122,1111122,1111122' 
COMPS,ioos:station:USF.COMPS:NFB:1,2014-12-01T11:24:00Z,25.0840,-81.0960,6.0,4.39,64.82,4.9,'1111122,1111122,1111122' 
COMPS,ioos:station:USF.COMPS:NFB:1,2014-12-01T11:36:00Z,25.0840,-81.0960,6.0,4.79,62.98,5.39,'1111122,1111122,1111122' 
COMPS,ioos:station:USF.COMPS:NFB:1,2014-12-01T11:42:00Z,25.0840,-81.0960,6.0,4.85,63.53,5.87,'1111122,1111122,1111122' 
COMPS,ioos:station:USF.COMPS:NFB:1,2014-12-01T11:48:00Z,25.0840,-81.0960,6.0,4.66,62.7,5.19,'1111122,1111122,1111122' 
COMPS,ioos:station:USF.COMPS:NFB:1,2014-12-01T11:54:00Z,25.0840,-81.0960,6.0,4.62,61.52,5.19,'1111122,1111122,1111122' 
COMPS,ioos:station:USF.COMPS:NFB:1,2014-12-01T12:00:00Z,25.0840,-81.0960,6.0,4.68,65.46,5.29,'1111122,1111122,1111122' 
COMPS,ioos:station:USF.COMPS:NFB:1,2014-12-01T12:06:00Z,25.0840,-81.0960,6.0,4.94,64.38,6.07,'1111122,1111122,1111122' 
COMPS,ioos:station:USF.COMPS:NFB:1,2014-12-01T12:12:00Z,25.0840,-81.0960,6.0,5.71,60.37,6.46,'1111122,1111122,1111122' 
COMPS,ioos:station:USF.COMPS:NFB:1,2014-12-01T12:18:00Z,25.0840,-81.0960,6.0,5.82,63.37,6.56,'1111122,1111122,1111122' 
COMPS,ioos:station:USF.COMPS:NFB:1,2014-12-01T12:24:00Z,25.0840,-81.0960,6.0,5.9,66.03,6.66,'1111122,1111122,1111122' 
COMPS,ioos:station:USF.COMPS:NFB:1,2014-12-01T12:30:00Z,25.0840,-81.0960,6.0,5.77,66.51,6.56,'1111122,1111122,1111122' 
COMPS,ioos:station:USF.COMPS:NFB:1,2014-12-01T12:36:00Z,25.0840,-81.0960,6.0,5.67,65.75,6.46,'1111122,1111122,1111122' 
COMPS,ioos:station:USF.COMPS:NFB:1,2014-12-01T12:42:00Z,25.0840,-81.0960,6.0,5.71,64.64,6.56,'1111122,1111122,1111122' 
COMPS,ioos:station:USF.COMPS:NFB:1,2014-12-01T12:48:00Z,25.0840,-81.0960,6.0,5.74,63.17,6.56,'1111122,1111122,1111122' 
COMPS,ioos:station:USF.COMPS:NFB:1,2014-12-01T12:54:00Z,25.0840,-81.0960,6.0,5.71,63.13,6.56,'1111122,1111122,1111122' 
COMPS,ioos:station:USF.COMPS:NFB:1,2014-12-01T13:00:00Z,25.0840,-81.0960,6.0,5.65,62.29,6.95,'1111122,1111122,1111122' 
COMPS,ioos:station:USF.COMPS:NFB:1,2014-12-01T13:06:00Z,25.0840,-81.0960,6.0,5.62,65.17,6.46,'1111122,1111122,1111122' 
COMPS,ioos:station:USF.COMPS:NFB:1,2014-12-01T13:12:00Z,25.0840,-81.0960,6.0,5.73,65.78,6.56,'1111122,1111122,1111122' 
COMPS,ioos:station:USF.COMPS:NFB:1,2014-12-01T13:18:00Z,25.0840,-81.0960,6.0,5.65,62.66,6.37,'1111122,1111122,1111122' 
COMPS,ioos:station:USF.COMPS:NFB:1,2014-12-01T13:24:00Z,25.0840,-81.0960,6.0,6.02,59.97,6.66,'1111122,1111122,1111122' 
COMPS,ioos:station:USF.COMPS:NFB:1,2014-12-01T13:30:00Z,25.0840,-81.0960,6.0,5.54,63.67,6.27,'1111122,1111122,1111122' 
COMPS,ioos:station:USF.COMPS:NFB:1,2014-12-01T13:36:00Z,25.0840,-81.0960,6.0,5.45,64.53,6.07,'1111122,1111122,1111122' 
COMPS,ioos:station:USF.COMPS:NFB:1,2014-12-01T13:42:00Z,25.0840,-81.0960,6.0,6.03,68.02,6.95,'1111122,1111122,1111122' 
COMPS,ioos:station:USF.COMPS:NFB:1,2014-12-01T13:48:00Z,25.0840,-81.0960,6.0,5.93,67.15,6.95,'1111122,1111122,1111122' 
COMPS,ioos:station:USF.COMPS:NFB:1,2014-12-01T13:54:00Z,25.0840,-81.0960,6.0,5.53,65.7,6.27,'1111122,1111122,1111122' 
COMPS,ioos:station:USF.COMPS:NFB:1,2014-12-01T14:00:00Z,25.0840,-81.0960,6.0,5.46,67.59,6.37,'1111122,1111122,1111122' 
COMPS,ioos:station:USF.COMPS:NFB:1,2014-12-01T14:06:00Z,25.0840,-81.0960,6.0,5.17,69.25,6.17,'1111122,1111122,1111122' 
COMPS,ioos:station:USF.COMPS:NFB:1,2014-12-01T14:12:00Z,25.0840,-81.0960,6.0,4.99,77.36,6.85,'1111122,1111122,1111122' 
COMPS,ioos:station:USF.COMPS:NFB:1,2014-12-01T14:18:00Z,25.0840,-81.0960,6.0,6.07,80.79,7.05,'1111122,1111122,1111122' 
COMPS,ioos:station:USF.COMPS:NFB:1,2014-12-01T14:24:00Z,25.0840,-81.0960,6.0,6.05,76.76,6.76,'1111122,1111122,1111122' 
COMPS,ioos:station:USF.COMPS:NFB:1,2014-12-01T14:30:00Z,25.0840,-81.0960,6.0,5.95,79.27,6.76,'1111122,1111122,1111122' 
COMPS,ioos:station:USF.COMPS:NFB:1,2014-12-01T14:36:00Z,25.0840,-81.0960,6.0,5.79,82.77,6.66,'1111122,1111122,1111122' 
COMPS,ioos:station:USF.COMPS:NFB:1,2014-12-01T14:42:00Z,25.0840,-81.0960,6.0,5.87,83.57,6.85,'1111122,1111122,1111122' 
COMPS,ioos:station:USF.COMPS:NFB:1,2014-12-01T14:48:00Z,25.0840,-81.0960,6.0,6.1,87.35,7.35,'1111122,1111122,1111122' 
COMPS,ioos:station:USF.COMPS:NFB:1,2014-12-01T14:54:00Z,25.0840,-81.0960,6.0,5.92,88.36,6.85,'1111122,1111122,1111122' 
COMPS,ioos:station:USF.COMPS:NFB:1,2014-12-01T15:00:00Z,25.0840,-81.0960,6.0,5.53,86.85,6.56,'1111122,1111122,1111122' 
COMPS,ioos:station:USF.COMPS:NFB:1,2014-12-01T15:06:00Z,25.0840,-81.0960,6.0,5.21,90.61,5.97,'1111122,1111122,1111122' 
COMPS,ioos:station:USF.COMPS:NFB:1,2014-12-01T15:12:00Z,25.0840,-81.0960,6.0,5.86,96.76,7.15,'1111122,1111122,1111122' 
COMPS,ioos:station:USF.COMPS:NFB:1,2014-12-01T15:18:00Z,25.0840,-81.0960,6.0,6.52,94.57,7.83,'1111122,1111122,1111122' 
COMPS,ioos:station:USF.COMPS:NFB:1,2014-12-01T15:24:00Z,25.0840,-81.0960,6.0,6.51,94.17,7.54,'1111122,1111122,1111122' 
COMPS,ioos:station:USF.COMPS:NFB:1,2014-12-01T15:30:00Z,25.0840,-81.0960,6.0,6.51,98.6,7.83,'1111122,1111122,1111122' 
COMPS,ioos:station:USF.COMPS:NFB:1,2014-12-01T15:36:00Z,25.0840,-81.0960,6.0,6.78,94.01,8.13,'1111122,1111122,1111122' 
COMPS,ioos:station:USF.COMPS:NFB:1,2014-12-01T15:42:00Z,25.0840,-81.0960,6.0,6.77,100.44,7.83,'1111122,1111122,1111122' 
COMPS,ioos:station:USF.COMPS:NFB:1,2014-12-01T15:48:00Z,25.0840,-81.0960,6.0,6.44,97.82,7.44,'1111122,1111122,1111122' 
COMPS,ioos:station:USF.COMPS:NFB:1,2014-12-01T15:54:00Z,25.0840,-81.0960,6.0,6.66,97.62,7.83,'1111122,1111122,1111122' 
COMPS,ioos:station:USF.COMPS:NFB:1,2014-12-01T16:00:00Z,25.0840,-81.0960,6.0,7.43,92.38,8.72,'1111122,1111122,1111122' 
COMPS,ioos:station:USF.COMPS:NFB:1,2014-12-01T16:06:00Z,25.0840,-81.0960,6.0,7.75,91.35,8.91,'1111122,1111122,1111122' 
COMPS,ioos:station:USF.COMPS:NFB:1,2014-12-01T16:12:00Z,25.0840,-81.0960,6.0,7.6,94.12,8.72,'1111122,1111122,1111122' 
COMPS,ioos:station:USF.COMPS:NFB:1,2014-12-01T16:18:00Z,25.0840,-81.0960,6.0,7.6,93.59,8.33,'1111122,1111122,1111122' 
COMPS,ioos:station:USF.COMPS:NFB:1,2014-12-01T16:24:00Z,25.0840,-81.0960,6.0,7.51,92.13,8.62,'1111122,1111122,1111122' 
COMPS,ioos:station:USF.COMPS:NFB:1,2014-12-01T16:30:00Z,25.0840,-81.0960,6.0,7.5,94.18,9.4,'1111122,1111122,1111122' 
COMPS,ioos:station:USF.COMPS:NFB:1,2014-12-01T16:36:00Z,25.0840,-81.0960,6.0,7.57,93.51,8.72,'1111122,1111122,1111122' 
COMPS,ioos:station:USF.COMPS:NFB:1,2014-12-01T16:42:00Z,25.0840,-81.0960,6.0,7.6,94.7,8.62,'1111122,1111122,1111122' 
COMPS,ioos:station:USF.COMPS:NFB:1,2014-12-01T16:48:00Z,25.0840,-81.0960,6.0,7.55,94.78,9.3,'1111122,1111122,1111122' 
COMPS,ioos:station:USF.COMPS:NFB:1,2014-12-01T16:54:00Z,25.0840,-81.0960,6.0,7.2,95.08,8.33,'1111122,1111122,1111122' 
COMPS,ioos:station:USF.COMPS:NFB:1,2014-12-01T17:00:00Z,25.0840,-81.0960,6.0,7.18,97.7,8.42,'1111122,1111122,1111122' 
COMPS,ioos:station:USF.COMPS:NFB:1,2014-12-01T17:06:00Z,25.0840,-81.0960,6.0,6.97,97.23,8.03,'1111122,1111122,1111122' 
COMPS,ioos:station:USF.COMPS:NFB:1,2014-12-01T17:12:00Z,25.0840,-81.0960,6.0,7.61,102.71,8.52,'1111122,1111122,1111122' 
COMPS,ioos:station:USF.COMPS:NFB:1,2014-12-01T17:18:00Z,25.0840,-81.0960,6.0,7.27,104.49,8.03,'1111122,1111122,1111122' 
COMPS,ioos:station:USF.COMPS:NFB:1,2014-12-01T17:24:00Z,25.0840,-81.0960,6.0,7.21,101.47,8.13,'1111122,1111122,1111122' 
COMPS,ioos:station:USF.COMPS:NFB:1,2014-12-01T17:30:00Z,25.0840,-81.0960,6.0,6.83,101.67,7.44,'1111122,1111122,1111122' 
COMPS,ioos:station:USF.COMPS:NFB:1,2014-12-01T17:36:00Z,25.0840,-81.0960,6.0,6.78,103.54,7.83,'1111122,1111122,1111122' 
COMPS,ioos:station:USF.COMPS:NFB:1,2014-12-01T17:42:00Z,25.0840,-81.0960,6.0,6.79,103.61,7.54,'1111122,1111122,1111122' 
COMPS,ioos:station:USF.COMPS:NFB:1,2014-12-01T17:48:00Z,25.0840,-81.0960,6.0,6.74,105.93,7.44,'1111122,1111122,1111122' 
COMPS,ioos:station:USF.COMPS:NFB:1,2014-12-01T17:54:00Z,25.0840,-81.0960,6.0,7.0,108.01,7.74,'1111122,1111122,1111122' 
COMPS,ioos:station:USF.COMPS:NFB:1,2014-12-01T18:00:00Z,25.0840,-81.0960,6.0,7.18,107.25,8.03,'1111122,1111122,1111122' 
COMPS,ioos:station:USF.COMPS:NFB:1,2014-12-01T18:06:00Z,25.0840,-81.0960,6.0,7.03,108.96,7.64,'1111122,1111122,1111122' 
COMPS,ioos:station:USF.COMPS:NFB:1,2014-12-01T18:12:00Z,25.0840,-81.0960,6.0,6.95,108.52,7.54,'1111122,1111122,1111122' 
COMPS,ioos:station:USF.COMPS:NFB:1,2014-12-01T18:18:00Z,25.0840,-81.0960,6.0,7.07,106.07,8.23,'1111122,1111122,1111122' 
COMPS,ioos:station:USF.COMPS:NFB:1,2014-12-01T18:24:00Z,25.0840,-81.0960,6.0,6.89,103.54,7.74,'1111122,1111122,1111122' 
COMPS,ioos:station:USF.COMPS:NFB:1,2014-12-01T18:30:00Z,25.0840,-81.0960,6.0,7.23,104.19,8.42,'1111122,1111122,1111122' 
COMPS,ioos:station:USF.COMPS:NFB:1,2014-12-01T18:36:00Z,25.0840,-81.0960,6.0,7.39,102.0,8.72,'1111122,1111122,1111122' 
COMPS,ioos:station:USF.COMPS:NFB:1,2014-12-01T18:42:00Z,25.0840,-81.0960,6.0,7.57,106.9,8.52,'1111122,1111122,1111122' 
COMPS,ioos:station:USF.COMPS:NFB:1,2014-12-01T18:48:00Z,25.0840,-81.0960,6.0,7.54,106.99,8.62,'1111122,1111122,1111122' 
COMPS,ioos:station:USF.COMPS:NFB:1,2014-12-01T18:54:00Z,25.0840,-81.0960,6.0,7.91,108.19,8.72,'1111122,1111122,1111122' 
COMPS,ioos:station:USF.COMPS:NFB:1,2014-12-01T19:00:00Z,25.0840,-81.0960,6.0,7.97,108.54,9.01,'1111122,1111122,1111122' 
COMPS,ioos:station:USF.COMPS:NFB:1,2014-12-01T19:06:00Z,25.0840,-81.0960,6.0,7.91,109.49,8.82,'1111122,1111122,1111122' 
COMPS,ioos:station:USF.COMPS:NFB:1,2014-12-01T19:12:00Z,25.0840,-81.0960,6.0,7.78,106.84,8.91,'1111122,1111122,1111122' 
COMPS,ioos:station:USF.COMPS:NFB:1,2014-12-01T19:18:00Z,25.0840,-81.0960,6.0,8.1,101.67,9.6,'1111122,1111122,1111122' 
COMPS,ioos:station:USF.COMPS:NFB:1,2014-12-01T19:24:00Z,25.0840,-81.0960,6.0,7.57,106.0,8.42,'1111122,1111122,1111122' 
COMPS,ioos:station:USF.COMPS:NFB:1,2014-12-01T19:30:00Z,25.0840,-81.0960,6.0,7.5,94.61,8.42,'1111122,1111122,1111122' 
COMPS,ioos:station:USF.COMPS:NFB:1,2014-12-01T19:36:00Z,25.0840,-81.0960,6.0,7.54,90.37,8.72,'1111122,1111122,1111122' 
COMPS,ioos:station:USF.COMPS:NFB:1,2014-12-01T19:42:00Z,25.0840,-81.0960,6.0,7.52,87.7,9.01,'1111122,1111122,1111122' 
COMPS,ioos:station:USF.COMPS:NFB:1,2014-12-01T19:48:00Z,25.0840,-81.0960,6.0,7.6,94.32,8.72,'1111122,1111122,1111122' 
COMPS,ioos:station:USF.COMPS:NFB:1,2014-12-01T19:54:00Z,25.0840,-81.0960,6.0,7.84,103.06,8.72,'1111122,1111122,1111122' 